| time (UTC) | temp F | wind direction | speed MPH | gust MPH | rain 1hr in | rain 24hr in | rain mn in | humidity % | barometer mb |
| 20260906223017 | 74 | 68 | 3.0 | 10.0 | 0.00 | 0.00 | 0.00 | 42 | 1028.0 |
| 20260906222015 | 75 | 90 | 3.0 | 8.0 | 0.00 | 0.00 | 0.00 | 40 | 1028.7 |
| 20260906221016 | 74 | 23 | 2.0 | 6.0 | 0.00 | 0.00 | 0.00 | 43 | 1028.2 |
| 20260906220015 | 73 | 90 | 1.0 | 6.0 | 0.00 | 0.00 | 0.00 | 41 | 1028.1 |
| 20260906215016 | 74 | 68 | 3.0 | 9.0 | 0.00 | 0.00 | 0.00 | 41 | 1028.6 |
| 20260906214015 | 72 | 68 | 3.0 | 7.0 | 0.00 | 0.00 | 0.00 | 43 | 1028.1 |
| 20260906213015 | 71 | 68 | 2.0 | 5.0 | 0.00 | 0.00 | 0.00 | 44 | 1027.9 |
| 20260906212015 | 71 | 90 | 1.0 | 4.0 | 0.00 | 0.00 | 0.00 | 46 | 1028.1 |
| 20260906211015 | 71 | 23 | 3.0 | 6.0 | 0.00 | 0.00 | 0.00 | 45 | 1028.0 |
| 20260906210016 | 71 | 23 | 1.0 | 7.0 | 0.00 | 0.00 | 0.00 | 46 | 1027.5 |
| 20260906205035 | 72 | 23 | 2.0 | 8.0 | 0.00 | 0.00 | 0.00 | 44 | 1028.3 |
| 20260906204015 | 74 | 0 | 4.0 | 11.0 | 0.00 | 0.00 | 0.00 | 41 | 1029.1 |
| 20260906203017 | 75 | 113 | 2.0 | 6.0 | 0.00 | 0.00 | 0.00 | 37 | 1029.4 |
| 20260906202017 | 77 | 90 | 2.0 | 9.0 | 0.00 | 0.00 | 0.00 | 34 | 1029.8 |
| 20260906201017 | 76 | 90 | 2.0 | 9.0 | 0.00 | 0.00 | 0.00 | 36 | 1029.2 |
| 20260906200017 | 74 | 113 | 4.0 | 12.0 | 0.00 | 0.00 | 0.00 | 37 | 1028.6 |
| 20260906195017 | 75 | 113 | 3.0 | 11.0 | 0.00 | 0.00 | 0.00 | 37 | 1028.8 |
| 20260906194017 | 74 | 90 | 2.0 | 7.0 | 0.00 | 0.00 | 0.00 | 38 | 1028.8 |
| 20260906193017 | 75 | 135 | 3.0 | 12.0 | 0.00 | 0.00 | 0.00 | 37 | 1028.4 |
| 20260906192017 | 74 | 90 | 4.0 | 10.0 | 0.00 | 0.00 | 0.00 | 39 | 1027.7 |
| 20260906191017 | 74 | 180 | 3.0 | 9.0 | 0.00 | 0.00 | 0.00 | 37 | 1027.7 |
| 20260906190017 | 73 | 158 | 3.0 | 12.0 | 0.00 | 0.00 | 0.00 | 39 | 1027.8 |
| 20260906185017 | 72 | 135 | 4.0 | 11.0 | 0.00 | 0.00 | 0.00 | 39 | 1028.0 |
| 20260906184017 | 72 | 180 | 3.0 | 12.0 | 0.00 | 0.00 | 0.00 | 38 | 1028.0 |
| 20260906183017 | 72 | 180 | 5.0 | 14.0 | 0.00 | 0.00 | 0.00 | 39 | 1028.3 |
| 20260906182037 | 71 | 180 | 5.0 | 10.0 | 0.00 | 0.00 | 0.00 | 37 | 1028.3 |
| 20260906181017 | 71 | 203 | 5.0 | 10.0 | 0.00 | 0.00 | 0.00 | 39 | 1028.8 |
| 20260906180037 | 71 | 225 | 5.0 | 10.0 | 0.00 | 0.00 | 0.00 | 37 | 1028.8 |
| 20260906175017 | 71 | 180 | 3.0 | 10.0 | 0.00 | 0.00 | 0.00 | 38 | 1029.0 |
| 20260906174017 | 72 | 203 | 3.0 | 8.0 | 0.00 | 0.00 | 0.00 | 39 | 1029.1 |
| 20260906173016 | 70 | 203 | 1.0 | 3.0 | 0.00 | 0.00 | 0.00 | 37 | 1029.3 |
| 20260906172016 | 70 | 203 | 4.0 | 10.0 | 0.00 | 0.00 | 0.00 | 37 | 1029.8 |
| 20260906171016 | 70 | 158 | 5.0 | 10.0 | 0.00 | 0.00 | 0.00 | 36 | 1029.0 |
| 20260906170017 | 70 | 225 | 2.0 | 7.0 | 0.00 | 0.00 | 0.00 | 36 | 1029.0 |
| 20260906165057 | 69 | 203 | 1.0 | 3.0 | 0.00 | 0.00 | 0.00 | 40 | 1029.0 |
| 20260906164017 | 68 | 225 | 3.0 | 7.0 | 0.00 | 0.00 | 0.00 | 40 | 1029.1 |
| 20260906163516 | 68 | 203 | 2.0 | 5.0 | 0.00 | 0.00 | 0.00 | 40 | 1029.2 |
| 20260906162516 | 67 | 225 | 2.0 | 4.0 | 0.00 | 0.00 | 0.00 | 43 | 1028.6 |
| 20260906161516 | 67 | 203 | 3.0 | 8.0 | 0.00 | 0.00 | 0.00 | 44 | 1028.6 |
| 20260906160557 | 67 | 203 | 3.0 | 6.0 | 0.00 | 0.00 | 0.00 | 45 | 1028.7 |
| 20260906155537 | 66 | 158 | 3.0 | 8.0 | 0.00 | 0.00 | 0.00 | 46 | 1028.4 |
| 20260906154517 | 65 | 180 | 2.0 | 5.0 | 0.00 | 0.00 | 0.00 | 48 | 1028.2 |
| 20260906153516 | 66 | 203 | 2.0 | 6.0 | 0.00 | 0.00 | 0.00 | 46 | 1029.2 |
| 20260906152516 | 65 | 0.0 | 2.0 | 0.00 | 0.00 | 0.00 | 46 | 1028.7 | |
| 20260906151516 | 65 | 180 | 1.0 | 2.0 | 0.00 | 0.00 | 0.00 | 45 | 1028.7 |
| 20260906150516 | 64 | 180 | 1.0 | 2.0 | 0.00 | 0.00 | 0.00 | 46 | 1028.2 |
| 20260906145536 | 64 | 203 | 1.0 | 3.0 | 0.00 | 0.00 | 0.00 | 46 | 1028.1 |
| 20260906144517 | 63 | 135 | 1.0 | 2.0 | 0.00 | 0.00 | 0.00 | 49 | 1027.5 |
| 20260906143516 | 62 | 0.0 | 2.0 | 0.00 | 0.00 | 0.00 | 47 | 1027.4 | |
| 20260906142516 | 62 | 0.0 | 2.0 | 0.00 | 0.00 | 0.00 | 50 | 1027.3 | |
| 20260906141516 | 61 | 0.0 | 0.0 | 0.00 | 0.00 | 0.00 | 48 | 1027.2 | |
| 20260906140516 | 61 | 0.0 | 0.0 | 0.00 | 0.00 | 0.00 | 50 | 1027.3 | |
| 20260906135516 | 61 | 0.0 | 0.0 | 0.00 | 0.00 | 0.00 | 49 | 1027.1 | |
| 20260906134516 | 60 | 0.0 | 0.0 | 0.00 | 0.00 | 0.00 | 50 | 1027.1 | |
| 20260906133516 | 60 | 0.0 | 0.0 | 0.00 | 0.00 | 0.00 | 50 | 1027.7 | |
| 20260906132516 | 60 | 0.0 | 0.0 | 0.00 | 0.00 | 0.00 | 50 | 1027.6 | |
| 20260906131516 | 60 | 0.0 | 0.0 | 0.00 | 0.00 | 0.00 | 49 | 1027.4 | |
| 20260906130516 | 60 | 0.0 | 0.0 | 0.00 | 0.00 | 0.00 | 50 | 1028.0 | |
| 20260906125516 | 60 | 0.0 | 1.0 | 0.00 | 0.00 | 0.00 | 50 | 1028.0 | |
| 20260906124516 | 60 | 158 | 1.0 | 2.0 | 0.00 | 0.00 | 0.00 | 50 | 1027.2 |
| 20260906123516 | 60 | 158 | 2.0 | 3.0 | 0.00 | 0.00 | 0.00 | 50 | 1028.8 |
| 20260906122536 | 60 | 180 | 2.0 | 3.0 | 0.00 | 0.00 | 0.00 | 50 | 1028.8 |
| 20260906121516 | 60 | 180 | 1.0 | 2.0 | 0.00 | 0.00 | 0.00 | 50 | 1028.9 |
| 20260906120516 | 60 | 158 | 1.0 | 2.0 | 0.00 | 0.00 | 0.00 | 50 | 1029.0 |
| 20260906115536 | 60 | 180 | 2.0 | 4.0 | 0.00 | 0.00 | 0.00 | 49 | 1029.1 |
| 20260906114516 | 60 | 180 | 3.0 | 3.0 | 0.00 | 0.00 | 0.00 | 49 | 1029.0 |
| 20260906113516 | 60 | 180 | 2.0 | 3.0 | 0.00 | 0.00 | 0.00 | 49 | 1030.3 |
| 20260906112515 | 60 | 0.0 | 1.0 | 0.00 | 0.00 | 0.00 | 49 | 1030.1 | |
| 20260906111516 | 60 | 135 | 1.0 | 2.0 | 0.00 | 0.00 | 0.00 | 49 | 1030.1 |
| 20260906110516 | 60 | 180 | 1.0 | 3.0 | 0.00 | 0.00 | 0.00 | 49 | 1029.5 |
| 20260906105516 | 60 | 158 | 1.0 | 2.0 | 0.00 | 0.00 | 0.00 | 49 | 1029.4 |
| 20260906104516 | 60 | 180 | 1.0 | 2.0 | 0.00 | 0.00 | 0.00 | 49 | 1029.0 |
| 20260906103515 | 60 | 180 | 2.0 | 2.0 | 0.00 | 0.00 | 0.00 | 49 | 1029.5 |
| 20260906102515 | 59 | 158 | 2.0 | 4.0 | 0.00 | 0.00 | 0.00 | 49 | 1029.6 |
| 20260906101516 | 60 | 180 | 3.0 | 4.0 | 0.00 | 0.00 | 0.00 | 49 | 1029.6 |
| 20260906100515 | 60 | 180 | 2.0 | 4.0 | 0.00 | 0.00 | 0.00 | 49 | 1030.2 |
| 20260906095515 | 60 | 180 | 2.0 | 3.0 | 0.00 | 0.00 | 0.00 | 48 | 1030.2 |
| 20260906094515 | 60 | 158 | 1.0 | 2.0 | 0.00 | 0.00 | 0.00 | 48 | 1030.1 |
| 20260906093516 | 60 | 158 | 3.0 | 4.0 | 0.00 | 0.00 | 0.00 | 49 | 1030.3 |
| 20260906092515 | 60 | 180 | 2.0 | 3.0 | 0.00 | 0.00 | 0.00 | 50 | 1030.3 |
| 20260906091535 | 59 | 180 | 2.0 | 3.0 | 0.00 | 0.00 | 0.00 | 50 | 1030.3 |
| 20260906090515 | 58 | 180 | 2.0 | 4.0 | 0.00 | 0.00 | 0.00 | 52 | 1029.1 |
| 20260906085516 | 59 | 180 | 1.0 | 3.0 | 0.00 | 0.00 | 0.00 | 52 | 1029.8 |
| 20260906084536 | 59 | 180 | 3.0 | 7.0 | 0.00 | 0.00 | 0.00 | 51 | 1029.7 |
| 20260906083515 | 59 | 203 | 2.0 | 4.0 | 0.00 | 0.00 | 0.00 | 53 | 1029.7 |
| 20260906082516 | 59 | 203 | 3.0 | 4.0 | 0.00 | 0.00 | 0.00 | 52 | 1029.7 |
| 20260906081517 | 59 | 180 | 3.0 | 4.0 | 0.00 | 0.00 | 0.00 | 53 | 1029.8 |
| 20260906080517 | 59 | 180 | 1.0 | 2.0 | 0.00 | 0.00 | 0.00 | 54 | 1030.5 |
| 20260906075517 | 58 | 225 | 1.0 | 3.0 | 0.00 | 0.00 | 0.00 | 55 | 1030.1 |
| 20260906074517 | 58 | 180 | 3.0 | 4.0 | 0.00 | 0.00 | 0.00 | 56 | 1030.1 |
| 20260906073517 | 57 | 180 | 3.0 | 6.0 | 0.00 | 0.00 | 0.00 | 58 | 1029.5 |
| 20260906072517 | 56 | 180 | 3.0 | 7.0 | 0.00 | 0.00 | 0.00 | 62 | 1029.6 |
| 20260906071517 | 55 | 180 | 3.0 | 5.0 | 0.00 | 0.00 | 0.00 | 65 | 1029.1 |
| 20260906070517 | 55 | 180 | 2.0 | 3.0 | 0.00 | 0.00 | 0.00 | 67 | 1029.1 |
| 20260906065557 | 55 | 180 | 2.0 | 4.0 | 0.00 | 0.00 | 0.00 | 68 | 1029.3 |
| 20260906064517 | 55 | 203 | 2.0 | 4.0 | 0.00 | 0.00 | 0.00 | 68 | 1029.3 |
| 20260906063537 | 56 | 180 | 1.0 | 3.0 | 0.00 | 0.00 | 0.00 | 65 | 1029.9 |
| 20260906062517 | 57 | 180 | 2.0 | 3.0 | 0.00 | 0.00 | 0.00 | 62 | 1029.9 |
| 20260906061537 | 57 | 180 | 2.0 | 3.0 | 0.00 | 0.00 | 0.00 | 61 | 1030.0 |
| 20260906060517 | 57 | 180 | 2.0 | 3.0 | 0.00 | 0.00 | 0.00 | 61 | 1030.1 |
| 20260906055515 | 57 | 203 | 1.0 | 3.0 | 0.00 | 0.00 | 0.00 | 61 | 1030.2 |
| 20260906054515 | 58 | 203 | 2.0 | 3.0 | 0.00 | 0.00 | 0.00 | 60 | 1030.2 |
| 20260906053535 | 58 | 203 | 2.0 | 3.0 | 0.00 | 0.00 | 0.00 | 59 | 1030.3 |
| 20260906052516 | 58 | 203 | 3.0 | 7.0 | 0.00 | 0.00 | 0.00 | 59 | 1030.5 |
| 20260906051515 | 58 | 180 | 3.0 | 6.0 | 0.00 | 0.00 | 0.00 | 59 | 1030.6 |
| 20260906050515 | 58 | 203 | 2.0 | 7.0 | 0.00 | 0.00 | 0.00 | 59 | 1029.9 |
| 20260906045615 | 58 | 180 | 3.0 | 7.0 | 0.00 | 0.00 | 0.00 | 60 | 1029.9 |
| 20260906044515 | 58 | 225 | 7.0 | 12.0 | 0.00 | 0.00 | 0.00 | 60 | 1030.1 |
| 20260906043515 | 58 | 225 | 8.0 | 14.0 | 0.00 | 0.00 | 0.00 | 60 | 1029.3 |
| 20260906042515 | 58 | 203 | 4.0 | 11.0 | 0.00 | 0.00 | 0.00 | 59 | 1029.2 |
| 20260906041515 | 58 | 203 | 4.0 | 9.0 | 0.00 | 0.00 | 0.00 | 58 | 1029.1 |
| 20260906040535 | 58 | 225 | 3.0 | 11.0 | 0.00 | 0.00 | 0.00 | 61 | 1028.6 |
| 20260906035515 | 57 | 225 | 6.0 | 11.0 | 0.00 | 0.00 | 0.00 | 63 | 1028.7 |
| 20260906034537 | 57 | 225 | 5.0 | 10.0 | 0.00 | 0.00 | 0.00 | 65 | 1028.2 |
| 20260906033537 | 57 | 225 | 3.0 | 8.0 | 0.00 | 0.00 | 0.00 | 62 | 1028.0 |
| 20260906032517 | 58 | 225 | 7.0 | 12.0 | 0.00 | 0.00 | 0.00 | 59 | 1028.5 |
| 20260906031517 | 59 | 203 | 5.0 | 9.0 | 0.00 | 0.00 | 0.00 | 54 | 1028.2 |
| 20260906030517 | 60 | 180 | 4.0 | 8.0 | 0.00 | 0.00 | 0.00 | 51 | 1027.5 |
| 20260906025517 | 59 | 180 | 1.0 | 2.0 | 0.00 | 0.00 | 0.00 | 53 | 1026.6 |
| 20260906024537 | 59 | 180 | 1.0 | 2.0 | 0.00 | 0.00 | 0.00 | 54 | 1026.5 |
| 20260906023517 | 59 | 23 | 1.0 | 2.0 | 0.00 | 0.00 | 0.00 | 50 | 1025.6 |
| 20260906022517 | 59 | 0 | 2.0 | 4.0 | 0.00 | 0.00 | 0.00 | 52 | 1025.5 |
| 20260906021517 | 59 | 23 | 2.0 | 4.0 | 0.00 | 0.00 | 0.00 | 52 | 1025.4 |
| 20260906020517 | 59 | 68 | 3.0 | 4.0 | 0.00 | 0.00 | 0.00 | 52 | 1025.4 |
| 20260906015517 | 60 | 45 | 2.0 | 5.0 | 0.00 | 0.00 | 0.00 | 52 | 1025.5 |
| 20260906014517 | 60 | 23 | 3.0 | 8.0 | 0.00 | 0.00 | 0.00 | 52 | 1025.6 |
| 20260906013517 | 61 | 23 | 3.0 | 7.0 | 0.00 | 0.00 | 0.00 | 53 | 1025.5 |
| 20260906012517 | 61 | 0 | 6.0 | 20.0 | 0.00 | 0.00 | 0.00 | 51 | 1025.5 |
| 20260906011517 | 62 | 293 | 7.0 | 17.0 | 0.00 | 0.00 | 0.00 | 48 | 1026.7 |
| 20260906010517 | 63 | 338 | 1.0 | 4.0 | 0.00 | 0.00 | 0.00 | 45 | 1026.4 |
| 20260906005516 | 64 | 0 | 3.0 | 8.0 | 0.00 | 0.00 | 0.00 | 48 | 1026.8 |
| 20260906004516 | 64 | 23 | 3.0 | 7.0 | 0.00 | 0.00 | 0.00 | 43 | 1026.7 |
| 20260906003517 | 65 | 0 | 4.0 | 10.0 | 0.00 | 0.00 | 0.00 | 43 | 1026.8 |
| 20260906002516 | 66 | 23 | 4.0 | 10.0 | 0.00 | 0.00 | 0.00 | 44 | 1027.4 |
| 20260906001517 | 67 | 23 | 3.0 | 7.0 | 0.00 | 0.00 | 0.00 | 42 | 1027.3 |
| 20260906000536 | 69 | 0 | 4.0 | 11.0 | 0.00 | 0.00 | 0.00 | 40 | 1028.3 |
| 20260905235516 | 68 | 293 | 6.0 | 12.0 | 0.00 | 0.00 | 0.00 | 39 | 1027.8 |
| 20260905234516 | 67 | 338 | 6.0 | 13.0 | 0.00 | 0.00 | 0.00 | 40 | 1027.3 |
| 20260905233516 | 70 | 0 | 3.0 | 8.0 | 0.00 | 0.00 | 0.00 | 36 | 1027.8 |
| 20260905232517 | 71 | 0 | 4.0 | 9.0 | 0.00 | 0.00 | 0.00 | 34 | 1028.2 |
| 20260905231516 | 73 | 0 | 1.0 | 7.0 | 0.00 | 0.00 | 0.00 | 32 | 1029.0 |
| 20260905230516 | 71 | 23 | 1.0 | 5.0 | 0.00 | 0.00 | 0.00 | 34 | 1028.3 |
| 20260905225517 | 70 | 68 | 1.0 | 3.0 | 0.00 | 0.00 | 0.00 | 35 | 1027.7 |
| 20260905224537 | 70 | 68 | 2.0 | 5.0 | 0.00 | 0.00 | 0.00 | 35 | 1027.6 |